WetterOnline ( https://www.wetteronline.de )

Wetter aktuell Bad Salzuflen

Aktuelles Wetter: Bad Salzuflen (139m)

6-stündlich | Neueste Meldungen
Ortszeit Temperatur Wetter
So, 03.03. 7:00 5.5° C bedeckt
So, 03.03. 1:00 9.6° C bedeckt
Sa, 02.03. 19:00 11.4° C leicht bewölkt
Sa, 02.03. 13:00 12.6° C wolkenlos
Sa, 02.03. 7:00 6.2° C wolkig
Sa, 02.03. 1:00 6.5° C bedeckt
Fr, 01.03. 19:00 8.5° C bedeckt
Fr, 01.03. 13:00 9.3° C bewölkt
Ortszeit Temperatur Wetter
So, 03.03. 7:00 5.5° C bedeckt
So, 03.03. 6:30 6.9° C bedeckt
So, 03.03. 6:20 6.9° C bedeckt
So, 03.03. 6:10 6.8° C bedeckt
So, 03.03. 6:00 6.6° C bedeckt
So, 03.03. 5:50 6.6° C bedeckt
So, 03.03. 5:30 6.4° C leicht bewölkt
So, 03.03. 5:00 6.8° C bedeckt
So, 03.03. 4:30 6.5° C bedeckt
So, 03.03. 4:00 6.9° C bedeckt
Ortszeit Relative Feuchte Sichtweite
So, 03.03. 7:00 87% 23 km
So, 03.03. 1:00 66% 45 km
Sa, 02.03. 19:00 57% >70 km
Sa, 02.03. 13:00 59% 65 km
Sa, 02.03. 7:00 82% 26 km
Sa, 02.03. 1:00 78% 40 km
Fr, 01.03. 19:00 71% 40 km
Fr, 01.03. 13:00 76% 35 km
Ortszeit Relative Feuchte Sichtweite
So, 03.03. 7:00 87% 23 km
So, 03.03. 6:30 82% 27 km
So, 03.03. 6:20 82% -
So, 03.03. 6:10 82% -
So, 03.03. 6:00 82% 28 km
So, 03.03. 5:50 82% -
So, 03.03. 5:30 81% 30 km
So, 03.03. 5:00 79% 30 km
So, 03.03. 4:30 81% 30 km
So, 03.03. 4:00 79% 35 km
Ortszeit Niederschlagsmenge Niederschlagsart
So, 03.03. 7:00 0.0 l/m2 in 12 Std. -
So, 03.03. 1:00 0.0 l/m2 in 6 Std. -
Sa, 02.03. 19:00 0.0 l/m2 in 12 Std. -
Sa, 02.03. 13:00 0.0 l/m2 in 6 Std. -
Sa, 02.03. 7:00 0.0 l/m2 in 12 Std. -
Sa, 02.03. 1:00 0.0 l/m2 in 6 Std. -
Fr, 01.03. 19:00 0.0 l/m2 in 12 Std. -
Fr, 01.03. 13:00 0.0 l/m2 in 6 Std. -
Ortszeit Niederschlagsmenge Niederschlagsart
So, 03.03. 7:00 keine Meldung -
So, 03.03. 6:30 0.0 l/m2 in 30 Min -
So, 03.03. 6:20 keine Meldung -
So, 03.03. 6:10 keine Meldung -
So, 03.03. 6:00 0.0 l/m2 in 1 Std. -
So, 03.03. 5:50 keine Meldung -
So, 03.03. 5:30 0.0 l/m2 in 30 Min -
So, 03.03. 5:00 0.0 l/m2 in 1 Std. -
So, 03.03. 4:30 0.0 l/m2 in 30 Min -
So, 03.03. 4:00 0.0 l/m2 in 1 Std. -
Ortszeit Stärke Spitze Richtung
km/h Bft. km/h Grad Sektor
So, 03.03. 7:00 4 1 29 60° NO
So, 03.03. 1:00 14 3 29 150° SO
Sa, 02.03. 19:00 9 2 37 130° SO
Sa, 02.03. 13:00 14 3 36 140° SO
Sa, 02.03. 7:00 11 2 26 150° SO
Sa, 02.03. 1:00 7 2 31 160° S
Fr, 01.03. 19:00 13 3 30 150° SO
Fr, 01.03. 13:00 11 2 29 240° SW
Ortszeit Stärke Spitze Richtung
km/h Bft. km/h Grad Sektor
So, 03.03. 7:00 4 1 29 60° NO
So, 03.03. 6:30 7 2 14 10° N
So, 03.03. 6:20 7 2 - 10° N
So, 03.03. 6:10 6 1 - 20° N
So, 03.03. 6:00 9 2 15 30° NO
So, 03.03. 5:50 9 2 - 30° NO
So, 03.03. 5:30 7 2 13 30° NO
So, 03.03. 5:00 7 2 14 30° NO
So, 03.03. 4:30 6 1 9 50° NO
So, 03.03. 4:00 6 1 13 60° NO
Ortszeit Untergrenze Bedeckung Gattung
total tief tief mittel hoch
So, 03.03. 7:00 2700 m 8/8 8/8 - - -
So, 03.03. 1:00 5400 m 8/8 8/8 - - -
Sa, 02.03. 19:00 9000 m 6/8 0/8 - - -
Sa, 02.03. 13:00 - 0/8 0/8 - - -
Sa, 02.03. 7:00 7200 m 8/8 0/8 - - -
Sa, 02.03. 1:00 4500 m 8/8 8/8 - - -
Fr, 01.03. 19:00 3300 m 8/8 8/8 - - -
Fr, 01.03. 13:00 600 m 7/8 7/8 - - -
Ortszeit Bedeckungsgrad in Achtel und Wolkenuntergrenze
So, 03.03. 7:00 8(2700m)
So, 03.03. 6:30 8(2700m) 8(3600m)
So, 03.03. 6:20 8(2700m) 8(3600m)
So, 03.03. 6:10 8
So, 03.03. 6:00 8(3000m)
So, 03.03. 5:50 8(3000m)
So, 03.03. 5:30 1(3300m) 3(8400m)
So, 03.03. 5:00 8(4800m) 8(8400m)
So, 03.03. 4:30 3(3300m) 8(5100m) 8(8400m)
So, 03.03. 4:00 7(3000m) 8(5700m) 8(6300m)
Ortszeit Luftdruck NN (hPa) Tendenz (hPa in 3 Std.)
So, 03.03. 7:00 1002 0,0
So, 03.03. 1:00 1003 - 0,8
Sa, 02.03. 19:00 1003 + 0,4
Sa, 02.03. 13:00 1004 - 0,1
Sa, 02.03. 7:00 1003 + 0,2
Sa, 02.03. 1:00 1004 - 0,8
Fr, 01.03. 19:00 1005 + 0,1
Fr, 01.03. 13:00 1005 + 0,5
Ortszeit Luftdruck NN (hPa) Tendenz (hPa in 3 Std.)
So, 03.03. 7:00 1002 0,0
So, 03.03. 6:30 1002 - 0,2
So, 03.03. 6:20 1002 keine Meldung
So, 03.03. 6:10 1002 keine Meldung
So, 03.03. 6:00 1002 - 0,4
So, 03.03. 5:50 1002 keine Meldung
So, 03.03. 5:30 1002 - 0,4
So, 03.03. 5:00 1002 - 0,4
So, 03.03. 4:30 1002 - 0,3
So, 03.03. 4:00 1002 - 0,6
Ortszeit Schneehöhe (cm)
So, 03.03. 7:00 0
So, 03.03. 1:00 0
Sa, 02.03. 19:00 0
Sa, 02.03. 13:00 0
Sa, 02.03. 7:00 0
Sa, 02.03. 1:00 0
Fr, 01.03. 19:00 0
Fr, 01.03. 13:00 0
Ortszeit Schneehöhe (cm)
So, 03.03. 7:00 0
So, 03.03. 6:30 0
So, 03.03. 6:20 0
So, 03.03. 6:10 -
So, 03.03. 6:00 0
So, 03.03. 5:50 0
So, 03.03. 5:30 0
So, 03.03. 5:00 0
So, 03.03. 4:30 0
So, 03.03. 4:00 0
Link zu dieser Seite / Seite empfehlen

Das Wetter in ...